Washington County, Wisconsin, United States
Lat: 43.37N, Lon: 88.22W
Wx Zone: WIZ059
Local Info
Past Weather Observations for Today

NOTE: This archive is for the closest National Weather Service station to Washington County. Information may differ from the station used for current weather conditions.

Click here for Long-term Archive

Time Weather Temperature Dewpoint Humidity Pressure Winds Precip Visibility
17:35
Overcast
46°F / 8°C 41°F / 5°C 82% 30.04 in
(1017 mb)
NE 6.9 mph
(NE 11 kph)
- 10SM
17:15
Overcast
46°F / 8°C 41°F / 5°C 82% 30.04 in
(1017 mb)
ENE 4.6 mph
(ENE 7 kph)
- 10SM
16:55
Overcast
48°F / 9°C 41°F / 5°C 76% 30.04 in
(1017 mb)
ENE 9.2 mph
(ENE 15 kph)
- 10SM
16:35
Overcast
48°F / 9°C 41°F / 5°C 76% 30.04 in
(1017 mb)
ENE 6.9 mph
(ENE 11 kph)
- 10SM
16:15
Overcast
50°F / 10°C 41°F / 5°C 71% 30.04 in
(1017 mb)
ENE 9.2 mph
(ENE 15 kph)
- 10SM
15:55
Overcast
50°F / 10°C 41°F / 5°C 71% 30.04 in
(1017 mb)
ENE 8.1 mph
(ENE 13 kph)
- 10SM
15:35
Overcast
50°F / 10°C 41°F / 5°C 71% 30.04 in
(1017 mb)
NE 8.1 mph
(NE 13 kph)
- 10SM
15:15
Overcast
50°F / 10°C 41°F / 5°C 71% 30.04 in
(1017 mb)
NNE 6.9 mph
(NNE 11 kph)
- 10SM
14:55
Overcast
50°F / 10°C 41°F / 5°C 71% 30.04 in
(1017 mb)
NE 6.9 mph
(NE 11 kph)
- 10SM
14:35
Overcast
52°F / 11°C 41°F / 5°C 67% 30.04 in
(1017 mb)
NNE 6.9 mph
(NNE 11 kph)
- 10SM
14:15
Overcast
50°F / 10°C 41°F / 5°C 71% 30.04 in
(1017 mb)
NE 8.1 mph
(NE 13 kph)
- 10SM
13:55
Overcast
52°F / 11°C 41°F / 5°C 67% 30.06 in
(1018 mb)
ENE 5.8 mph
(ENE 9 kph)
- 10SM
13:35
Overcast
52°F / 11°C 41°F / 5°C 67% 30.06 in
(1018 mb)
NE 8.1 mph
(NE 13 kph)
- 10SM
13:15
Overcast
52°F / 11°C 41°F / 5°C 67% 30.06 in
(1018 mb)
E 4.6 mph
(E 7 kph)
- 10SM
12:55
Overcast
50°F / 10°C 41°F / 5°C 71% 30.06 in
(1018 mb)
ENE 8.1 mph
(ENE 13 kph)
- 10SM
12:35
Overcast
50°F / 10°C 41°F / 5°C 71% 30.06 in
(1018 mb)
NE 6.9 mph
(NE 11 kph)
- 10SM
12:15
Overcast
50°F / 10°C 41°F / 5°C 71% 30.06 in
(1018 mb)
NNE 6.9 mph
(NNE 11 kph)
- 10SM
11:55
Overcast
48°F / 9°C 39°F / 4°C 71% 30.09 in
(1019 mb)
Calm - 10SM
11:35
Overcast
48°F / 9°C 39°F / 4°C 71% 30.09 in
(1019 mb)
NNW 4.6 mph
(NNW 7 kph)
- 10SM
11:15
Overcast
48°F / 9°C 39°F / 4°C 71% 30.09 in
(1019 mb)
NNW 3.5 mph
(NNW 6 kph)
- 10SM
10:55
Overcast
46°F / 8°C 37°F / 3°C 71% 30.09 in
(1019 mb)
Calm - 10SM
10:35
Overcast
46°F / 8°C 37°F / 3°C 71% 30.09 in
(1019 mb)
NNW 5.8 mph
(NNW 9 kph)
- 10SM
10:15
Overcast
46°F / 8°C 37°F / 3°C 71% 30.09 in
(1019 mb)
N 5.8 mph
(N 9 kph)
- 10SM
09:55
Overcast
46°F / 8°C 37°F / 3°C 71% 30.09 in
(1019 mb)
NNE 5.8 mph
(NNE 9 kph)
- 10SM
09:35
Overcast
45°F / 7°C 37°F / 3°C 76% 30.09 in
(1019 mb)
N 8.1 mph
(N 13 kph)
- 10SM
09:15
Overcast
45°F / 7°C 37°F / 3°C 76% 30.09 in
(1019 mb)
NNW 8.1 mph
(NNW 13 kph)
- 10SM
08:55
Overcast
45°F / 7°C 37°F / 3°C 76% 30.09 in
(1019 mb)
N 6.9 mph
(N 11 kph)
- 10SM
08:35
Overcast
45°F / 7°C 37°F / 3°C 76% 30.09 in
(1019 mb)
NE 9.2 mph
(NE 15 kph)
- 10SM
08:15
Overcast
45°F / 7°C 37°F / 3°C 76% 30.09 in
(1019 mb)
NNE 6.9 mph
(NNE 11 kph)
- 10SM
07:55
Overcast
43°F / 6°C 37°F / 3°C 81% 30.09 in
(1019 mb)
N 5.8 mph
(N 9 kph)
- 10SM
07:35
Overcast
43°F / 6°C 37°F / 3°C 81% 30.09 in
(1019 mb)
NNW 8.1 mph
(NNW 13 kph)
- 10SM
07:15
Overcast
43°F / 6°C 37°F / 3°C 81% 30.09 in
(1019 mb)
N 9.2 mph
(N 15 kph)
- 10SM
06:55
Overcast
43°F / 6°C 37°F / 3°C 81% 30.09 in
(1019 mb)
N 4.6 mph
(N 7 kph)
- 10SM
06:35
Overcast
43°F / 6°C 37°F / 3°C 81% 30.09 in
(1019 mb)
NE 9.2 mph
(NE 15 kph)
- 10SM
06:15
Overcast
43°F / 6°C 37°F / 3°C 81% 30.09 in
(1019 mb)
N 9.2 mph
(N 15 kph)
- 10SM
05:55
Overcast
43°F / 6°C 37°F / 3°C 81% 30.09 in
(1019 mb)
NE 10.4 mph
(NE 17 kph)
- 10SM
05:35
Overcast
43°F / 6°C 37°F / 3°C 81% 30.09 in
(1019 mb)
N 6.9 mph
(N 11 kph)
- 10SM
05:15
Overcast
43°F / 6°C 37°F / 3°C 81% 30.09 in
(1019 mb)
NNW 8.1 mph
(NNW 13 kph)
- 10SM
04:55
Overcast
43°F / 6°C 36°F / 2°C 76% 30.09 in
(1019 mb)
N 5.8 mph
(N 9 kph)
- 10SM
04:35
Overcast
43°F / 6°C 36°F / 2°C 76% 30.09 in
(1019 mb)
N 5.8 mph
(N 9 kph)
- 10SM
04:15
Overcast
43°F / 6°C 36°F / 2°C 76% 30.09 in
(1019 mb)
N 9.2 mph
(N 15 kph)
- 10SM
03:55
Overcast
43°F / 6°C 36°F / 2°C 76% 30.09 in
(1019 mb)
N 4.6 mph
(N 7 kph)
- 10SM
03:35
Overcast
43°F / 6°C 36°F / 2°C 76% 30.09 in
(1019 mb)
NNE 8.1 mph
(NNE 13 kph)
- 10SM
03:10
Overcast
43°F / 6°C 37°F / 3°C 81% 30.09 in
(1019 mb)
N 6.9 mph
(N 11 kph)
- 10SM
02:55
Overcast
43°F / 6°C 37°F / 3°C 81% 30.09 in
(1019 mb)
N 11.5 mph
(N 19 kph)
- 10SM
02:35
Overcast
43°F / 6°C 37°F / 3°C 81% 30.09 in
(1019 mb)
N 9.2 mph
(N 15 kph)
- 10SM
02:15
Overcast
43°F / 6°C 37°F / 3°C 81% 30.09 in
(1019 mb)
N 8.1 mph
(N 13 kph)
- 10SM
01:55
Overcast
43°F / 6°C 37°F / 3°C 81% 30.09 in
(1019 mb)
N 6.9 mph
(N 11 kph)
- 10SM
01:35
Overcast
43°F / 6°C 37°F / 3°C 81% 30.09 in
(1019 mb)
N 5.8 mph
(N 9 kph)
- 10SM
01:15
Overcast
43°F / 6°C 37°F / 3°C 81% 30.09 in
(1019 mb)
NNE 5.8 mph
(NNE 9 kph)
- 10SM
00:55
Overcast
45°F / 7°C 37°F / 3°C 76% 30.09 in
(1019 mb)
N 8.1 mph
(N 13 kph)
- 10SM
00:35
Overcast
45°F / 7°C 37°F / 3°C 76% 30.09 in
(1019 mb)
N 8.1 mph
(N 13 kph)
- 10SM
00:15
Overcast
45°F / 7°C 39°F / 4°C 81% 30.06 in
(1018 mb)
NNE 12.7 mph
(NNE 20 kph)
- 10SM
Time Weather Temperature Dewpoint Humidity Pressure Winds Precip Visibility


Weather for websites

WeatherForYou.com, LLC is not responsible for any damages or problems caused by this service. Current weather conditions are obtained from the closest station including government and personal stations which may have varying degrees of accuracy. Weather forecasts are derived from the NOAA NDFD. Like all things, this site belongs to Jesus Christ... He just trusts me to maintain it. If you have any questions or comments email webmaster@weatherforyou.com

Copyright © 2014, WeatherForYou.com LLC. All rights reserved.